• în România
  • Lista ţărilor
  • Pe 7 zile
  • Temperatura apei
  • Hartă satelitară
  • Meteo pe hartă
  • Widget-uri
  • user-avatar
    Intrare

    Meteo pe oră la Adelaide

    Astăzi, 17 August, Vineri

    Timp Temperatura Precipitaţii Vânt Presiune Umiditate
    00:00 +9°C° 0 mm 3 m/s 758 mmHg 81%
    01:00 +8°C° 0 mm 4 m/s 757 mmHg 83%
    02:00 +8°C° 0 mm 4 m/s 757 mmHg 84%
    03:00 +8°C° 0 mm 4 m/s 757 mmHg 85%
    04:00 +8°C° 0 mm 5 m/s 757 mmHg 86%
    05:00 +8°C° 0 mm 5 m/s 757 mmHg 86%
    06:00 +8°C° 0 mm 5 m/s 757 mmHg 87%
    07:00 +9°C° 0 mm 6 m/s 757 mmHg 84%
    08:00 +10°C° 0 mm 6 m/s 757 mmHg 82%
    09:00 +11°C° 0 mm 7 m/s 757 mmHg 78%
    10:00 +12°C° 0 mm 7 m/s 756 mmHg 75%
    11:00 +14°C° 0 mm 7 m/s 756 mmHg 72%
    12:00 +15°C° 0 mm 7 m/s 756 mmHg 69%
    13:00 +15°C° 0 mm 7 m/s 755 mmHg 66%
    14:00 +15°C° 0 mm 7 m/s 754 mmHg 64%
    15:00 +16°C° 0 mm 7 m/s 754 mmHg 61%
    16:00 +15°C° 0 mm 7 m/s 754 mmHg 64%
    17:00 +14°C° 0 mm 7 m/s 753 mmHg 66%
    18:00 +13°C° 0 mm 6 m/s 753 mmHg 69%
    19:00 +12°C° 0,7 mm 7 m/s 754 mmHg 71%
    20:00 +12°C° 0,7 mm 7 m/s 754 mmHg 74%
    21:00 +11°C° 0,7 mm 8 m/s 754 mmHg 76%
    22:00 +11°C° 1,1 mm 8 m/s 754 mmHg 78%
    23:00 +10°C° 1,1 mm 7 m/s 755 mmHg 80%

    Mâine, 18 August, Sâmbătă

    Timp Temperatura Precipitaţii Vânt Presiune Umiditate
    00:00 +10°C° 1,1 mm 7 m/s 755 mmHg 83%
    01:00 +9°C° 0,2 mm 7 m/s 756 mmHg 80%
    02:00 +9°C° 0,2 mm 7 m/s 756 mmHg 77%
    03:00 +7°C° 0,2 mm 8 m/s 756 mmHg 74%
    04:00 +8°C° 0,1 mm 7 m/s 757 mmHg 73%
    05:00 +8°C° 0,1 mm 7 m/s 757 mmHg 73%
    06:00 +8°C° 0,1 mm 7 m/s 757 mmHg 72%
    07:00 +9°C° 0,1 mm 8 m/s 758 mmHg 69%
    08:00 +10°C° 0,1 mm 8 m/s 759 mmHg 66%
    09:00 +10°C° 0,1 mm 9 m/s 759 mmHg 63%
    10:00 +11°C° 0,1 mm 9 m/s 760 mmHg 60%
    11:00 +12°C° 0,1 mm 9 m/s 760 mmHg 57%
    12:00 +12°C° 0,1 mm 10 m/s 760 mmHg 55%
    13:00 +12°C° 0,1 mm 10 m/s 760 mmHg 56%
    14:00 +11°C° 0,1 mm 9 m/s 760 mmHg 58%
    15:00 +11°C° 0,1 mm 9 m/s 761 mmHg 59%
    16:00 +10°C° 0 mm 8 m/s 761 mmHg 61%
    17:00 +10°C° 0 mm 8 m/s 762 mmHg 62%
    18:00 +9°C° 0 mm 7 m/s 763 mmHg 64%
    19:00 +9°C° 0 mm 7 m/s 763 mmHg 65%
    20:00 +9°C° 0 mm 7 m/s 764 mmHg 67%
    21:00 +9°C° 0 mm 7 m/s 764 mmHg 68%
    22:00 +9°C° 0 mm 7 m/s 765 mmHg 69%
    23:00 +8°C° 0 mm 6 m/s 765 mmHg 69%

    Poimâine, 19 August, Duminică

    Timp Temperatura Precipitaţii Vânt Presiune Umiditate
    00:00 +8°C° 0 mm 6 m/s 765 mmHg 70%
    01:00 +8°C° 0 mm 6 m/s 765 mmHg 70%
    02:00 +8°C° 0 mm 6 m/s 765 mmHg 70%
    03:00 +8°C° 0 mm 6 m/s 766 mmHg 70%
    04:00 +8°C° 0 mm 6 m/s 766 mmHg 71%
    05:00 +8°C° 0 mm 6 m/s 766 mmHg 72%
    06:00 +7°C° 0 mm 5 m/s 767 mmHg 73%
    07:00 +8°C° 0 mm 6 m/s 767 mmHg 70%
    08:00 +9°C° 0 mm 6 m/s 768 mmHg 67%
    09:00 +10°C° 0 mm 6 m/s 768 mmHg 64%
    10:00 +11°C° 0 mm 6 m/s 768 mmHg 62%
    11:00 +12°C° 0 mm 5 m/s 768 mmHg 61%
    12:00 +12°C° 0 mm 5 m/s 768 mmHg 60%
    13:00 +12°C° 0 mm 5 m/s 768 mmHg 60%
    14:00 +12°C° 0 mm 5 m/s 768 mmHg 59%
    15:00 +12°C° 0 mm 4 m/s 768 mmHg 59%
    16:00 +11°C° 0 mm 4 m/s 768 mmHg 63%
    17:00 +10°C° 0 mm 3 m/s 768 mmHg 67%
    18:00 +9°C° 0 mm 3 m/s 769 mmHg 72%
    19:00 +8°C° 0 mm 2 m/s 769 mmHg 74%
    20:00 +7°C° 0 mm 2 m/s 769 mmHg 77%
    21:00 +7°C° 0 mm 2 m/s 769 mmHg 79%
    22:00 +8°C° 0 mm 1 m/s 769 mmHg 80%
    23:00 +7°C° 0 mm 1 m/s 768 mmHg 82%

    20 August, Luni

    Timp Temperatura Precipitaţii Vânt Presiune Umiditate
    00:00 +7°C° 0 mm 1 m/s 768 mmHg 83%
    01:00 +7°C° 0 mm 1 m/s 768 mmHg 84%
    02:00 +6°C° 0 mm 2 m/s 767 mmHg 85%
    03:00 +5°C° 0 mm 2 m/s 767 mmHg 85%
    04:00 +5°C° 0 mm 2 m/s 767 mmHg 85%
    05:00 +5°C° 0 mm 2 m/s 767 mmHg 85%
    06:00 +4°C° 0 mm 3 m/s 767 mmHg 86%
    07:00 +7°C° 0 mm 3 m/s 767 mmHg 80%
    08:00 +8°C° 0 mm 3 m/s 767 mmHg 74%
    09:00 +10°C° 0 mm 3 m/s 767 mmHg 67%
    10:00 +11°C° 0 mm 3 m/s 766 mmHg 63%
    11:00 +12°C° 0 mm 3 m/s 766 mmHg 59%
    12:00 +13°C° 0 mm 3 m/s 765 mmHg 54%
    13:00 +13°C° 0 mm 3 m/s 764 mmHg 57%
    14:00 +13°C° 0 mm 4 m/s 764 mmHg 59%
    15:00 +13°C° 0 mm 4 m/s 763 mmHg 61%
    16:00 +12°C° 0 mm 3 m/s 763 mmHg 67%
    17:00 +11°C° 0 mm 3 m/s 763 mmHg 72%
    18:00 +10°C° 0 mm 2 m/s 763 mmHg 77%
    19:00 +9°C° 0 mm 2 m/s 763 mmHg 77%
    20:00 +9°C° 0 mm 2 m/s 763 mmHg 78%
    21:00 +9°C° 0 mm 2 m/s 763 mmHg 78%
    22:00 +9°C° 0 mm 2 m/s 763 mmHg 79%
    23:00 +8°C° 0 mm 2 m/s 763 mmHg 80%

    21 August, Marţi

    Timp Temperatura Precipitaţii Vânt Presiune Umiditate
    00:00 +8°C° 0 mm 2 m/s 762 mmHg 80%
    01:00 +8°C° 0 mm 2 m/s 762 mmHg 80%
    02:00 +8°C° 0 mm 2 m/s 762 mmHg 81%
    03:00 +8°C° 0 mm 2 m/s 762 mmHg 81%
    04:00 +8°C° 0 mm 2 m/s 762 mmHg 80%
    05:00 +8°C° 0 mm 2 m/s 762 mmHg 80%
    06:00 +7°C° 0 mm 2 m/s 762 mmHg 79%
    07:00 +9°C° 0 mm 2 m/s 762 mmHg 72%
    08:00 +12°C° 0 mm 2 m/s 762 mmHg 66%
    09:00 +13°C° 0 mm 3 m/s 762 mmHg 60%
    10:00 +14°C° 0 mm 3 m/s 761 mmHg 54%
    11:00 +16°C° 0 mm 3 m/s 761 mmHg 49%
    12:00 +17°C° 0 mm 3 m/s 760 mmHg 44%
    13:00 +17°C° 0 mm 3 m/s 760 mmHg 44%
    14:00 +17°C° 0 mm 3 m/s 759 mmHg 44%
    15:00 +17°C° 0 mm 3 m/s 758 mmHg 44%
    16:00 +16°C° 0 mm 3 m/s 759 mmHg 49%
    17:00 +14°C° 0 mm 2 m/s 759 mmHg 53%
    18:00 +12°C° 0 mm 2 m/s 759 mmHg 58%
    19:00 +12°C° 0 mm 2 m/s 759 mmHg 57%
    20:00 +10°C° 0 mm 3 m/s 759 mmHg 56%
    21:00 +10°C° 0 mm 3 m/s 759 mmHg 56%
    22:00 +10°C° 0 mm 3 m/s 759 mmHg 55%
    23:00 +10°C° 0 mm 3 m/s 758 mmHg 54%

    22 August, Miercuri

    Timp Temperatura Precipitaţii Vânt Presiune Umiditate
    00:00 +8°C° 0 mm 4 m/s 758 mmHg 54%
    01:00 +10°C° 0 mm 4 m/s 757 mmHg 55%
    02:00 +10°C° 0 mm 4 m/s 757 mmHg 56%
    03:00 +10°C° 0 mm 4 m/s 757 mmHg 57%
    04:00 +10°C° 0 mm 4 m/s 757 mmHg 54%
    05:00 +10°C° 0 mm 4 m/s 757 mmHg 52%
    06:00 +11°C° 0 mm 3 m/s 757 mmHg 49%
    07:00 +11°C° 0 mm 4 m/s 757 mmHg 50%
    08:00 +12°C° 0 mm 4 m/s 757 mmHg 51%
    09:00 +12°C° 0 mm 4 m/s 757 mmHg 52%
    10:00 +13°C° 0 mm 4 m/s 757 mmHg 52%
    11:00 +14°C° 0 mm 4 m/s 756 mmHg 52%
    12:00 +14°C° 0 mm 4 m/s 756 mmHg 51%
    13:00 +15°C° 0 mm 4 m/s 755 mmHg 51%
    14:00 +16°C° 0 mm 3 m/s 755 mmHg 50%
    15:00 +16°C° 0 mm 3 m/s 755 mmHg 49%
    16:00 +14°C° 0 mm 3 m/s 755 mmHg 51%
    17:00 +13°C° 0 mm 3 m/s 755 mmHg 52%
    18:00 +12°C° 0 mm 3 m/s 756 mmHg 53%
    19:00 +12°C° 0 mm 3 m/s 756 mmHg 53%
    20:00 +11°C° 0 mm 3 m/s 757 mmHg 53%
    21:00 +11°C° 0 mm 3 m/s 757 mmHg 52%
    22:00 +10°C° 0 mm 3 m/s 757 mmHg 53%
    23:00 +10°C° 0 mm 3 m/s 757 mmHg 55%
    Arată mai mult